sat.trackr.live / text

‹ back to catalog

STARLINK-36620

NORAD 67654 · 2026-022G

PAYLOAD ACTIVE UNKNOWN

§ Identity

Operator
Country
US
Launch date
2026-02-02
Launch site
AFWTR
Launch vehicle
Mass (kg)
RCS (m²)

Purposes: comms

External: N2YO · Heavens-Above · Gunter

§ Orbital elements

Epoch: 2026-05-24T23:32:58.767072Z

Period
93.91 min
Inclination
97.2842°
Eccentricity
0.0001315
Mean motion
15.33458481 rev/d
Perigee alt
464.6 km
Apogee alt
466.4 km
Semi-major
6,843.6 km
B*
4.9978e-4
RAAN
178.2234°
Arg perigee
102.9012°
Mean anomaly
257.2378°
Rev number
1,726

§ Raw data

STARLINK-366201 67654U 26022G   26144.98123573  .00016101  00000+0  49978-3 0  99932 67654  97.2842 178.2234 0001315 102.9012 257.2378 15.33458481 17266

JSON: /api/v1/satellites/67654 · /tle

For live sub-satellite position, see the globe view (requires WebGL).

§ Visibility from observer

Set your observer location to see the next 7 days of passes ≥ 10°. The values pass through the URL so the page stays shareable.

No JS? Fill the form by hand. The geolocation button needs JavaScript.